Weather History for Big Delta, AK

Change the Weather History Date:

Sunday, February 9, 2014

  Actual Average Record
Temperature  
Mean Temperature -17 °F -  
Max Temperature -9 °F 14 °F 37 °F (2003)
Min Temperature -25 °F 1 °F -38 °F (1999)
Degree Days  
Heating Degree Days 82    
Moisture  
Dew Point -20 °F    
Average Humidity 79    
Maximum Humidity 87    
Minimum Humidity 59    
Precipitation  
Precipitation 0.00 in - - ()
Sea Level Pressure  
Sea Level Pressure 30.50 in    
Wind  
Wind Speed 1 mph (ESE)    
Max Wind Speed 6 mph    
Max Gust Speed -    
Visibility 4 miles    
Events Fog , Snow    
Averages and records for this station are not official NWS values.
T = Trace of Precipitation, MM = Missing Value Source: NWS Daily Summary

Daily Weather History Graph

Daily Weather History Graph

Search for Another Location

Airport:

Trip Planner

Search our weather history database for the weather conditions in past years. The results will help you decide how hot, cold, wet, or windy it might be!

Date:

Astronomy

Feb. 09, 2014 Rise Set
Actual Time 8:56 AM AKST 4:59 PM AKST
Civil Twilight 8:03 AM AKST 5:52 PM AKST
Nautical Twilight 7:06 AM AKST 6:48 PM AKST
Astronomical Twilight 6:11 AM AKST 7:43 PM AKST
Moon 12:01 PM AKST (2/9) 5:54 AM AKST (2/9)
Length of Visible Light 9h 48m
Length of Day
8h 02m
Waxing Gibbous, 78% of the Moon is Illuminated
Feb 9
Waxing Gibbous
Feb 14
Full
Feb 22
Last Quarter
Feb 28
New
Mar 8
First Quarter

Hourly Weather History & Observations

Time (AKST) Temp. Windchill Dew Point Humidity Pressure Visibility Wind Dir Wind Speed Gust Speed Precip Events Conditions
12:09 AM -11.9 °F - -16.1 °F 82% 30.45 in 10.0 mi Calm Calm - N/A   Scattered Clouds
12:17 AM -15.0 °F - -20.0 °F 78% 30.45 in 10.0 mi Calm Calm - N/A   Mostly Cloudy
12:53 AM -15.0 °F - -20.9 °F 75% 30.66 in 10.0 mi Calm Calm - N/A   Overcast
1:53 AM -11.9 °F - -15.0 °F 86% 30.65 in 4.0 mi Calm Calm - N/A   Overcast
2:13 AM -16.1 °F - -20.0 °F 82% 30.45 in 1.8 mi Calm Calm - N/A   Overcast
2:22 AM -17.0 °F - -20.9 °F 82% 30.44 in 1.0 mi Calm Calm - N/A   Overcast
2:27 AM -17.0 °F - -20.9 °F 82% 30.44 in 0.8 mi Calm Calm - N/A   Mist
2:31 AM -17.0 °F - -20.0 °F 86% 30.44 in 0.5 mi Calm Calm - N/A Fog Light Freezing Fog
2:53 AM -14.1 °F - -18.9 °F 79% 30.64 in 0.5 mi Calm Calm - N/A   Haze
3:11 AM -14.1 °F -23.9 °F -17.0 °F 87% 30.44 in 0.8 mi SW 3.5 mph - N/A   Overcast
3:24 AM -14.1 °F - -18.0 °F 82% 30.44 in 1.0 mi Calm Calm - N/A   Overcast
3:53 AM -15.0 °F -25.0 °F -18.9 °F 82% 30.63 in 1.0 mi SW 3.5 mph - N/A   Overcast
4:10 AM -15.0 °F - -20.0 °F 78% 30.43 in 2.5 mi Calm Calm - N/A   Haze
4:18 AM -16.1 °F - -20.9 °F 79% 30.43 in 4.0 mi Calm Calm - N/A   Haze
4:27 AM -16.1 °F - -20.9 °F 79% 30.43 in 1.5 mi Calm Calm - N/A   Haze
4:53 AM -16.1 °F - -20.0 °F 82% 30.63 in 1.0 mi Calm Calm - N/A   Mist
4:58 AM -16.1 °F - -20.9 °F 79% 30.42 in 3.0 mi Calm Calm - N/A   Haze
5:01 AM -16.1 °F - -20.9 °F 79% 30.42 in 1.5 mi Calm Calm - N/A   Haze
5:08 AM -16.1 °F - -18.9 °F 87% 30.42 in 0.5 mi Calm Calm - N/A Fog Light Freezing Fog
5:21 AM -16.1 °F - -20.0 °F 82% 30.42 in 0.8 mi Calm Calm - N/A   Mist
5:38 AM -16.1 °F - -20.0 °F 82% 30.41 in 1.5 mi Calm Calm - N/A   Overcast
5:53 AM -15.0 °F - -18.0 °F 86% 30.62 in 0.8 mi Calm Calm - N/A   Mist
6:04 AM -15.0 °F -25.0 °F -18.9 °F 82% 30.40 in 1.2 mi East 3.5 mph - N/A   Overcast
6:15 AM -15.0 °F -27.4 °F -20.0 °F 78% 30.40 in 0.5 mi ESE 4.6 mph - N/A   Haze
6:26 AM -15.0 °F -27.4 °F -18.0 °F 86% 30.40 in 0.8 mi ESE 4.6 mph - N/A   Mist
6:34 AM -14.1 °F -26.3 °F -17.0 °F 87% 30.40 in 1.0 mi ESE 4.6 mph - N/A   Mist
6:42 AM -14.1 °F -23.9 °F -17.0 °F 87% 30.40 in 0.8 mi East 3.5 mph - N/A   Mist
6:53 AM -14.1 °F - -18.0 °F 82% 30.61 in 2.5 mi Calm Calm - N/A   Overcast
7:06 AM -14.1 °F - -17.0 °F 87% 30.40 in 1.2 mi Calm Calm - N/A   Overcast
7:53 AM -15.0 °F - -20.0 °F 78% 30.61 in 8.0 mi Calm Calm - N/A   Overcast
8:53 AM -16.1 °F -26.2 °F -20.0 °F 82% 30.62 in 2.0 mi East 3.5 mph - N/A   Overcast
9:11 AM -16.1 °F -26.2 °F -20.0 °F 82% 30.39 in 1.8 mi ESE 3.5 mph - N/A   Overcast
9:20 AM -15.0 °F -25.0 °F -18.9 °F 82% 30.39 in 2.5 mi ESE 3.5 mph - N/A   Overcast
9:26 AM -15.0 °F -27.4 °F -18.9 °F 82% 30.39 in 0.8 mi ESE 4.6 mph - 0.00 in Snow Light Snow
9:34 AM -15.0 °F -25.0 °F -18.9 °F 82% 30.39 in 0.5 mi ESE 3.5 mph - 0.00 in Fog , Snow Light Snow
9:39 AM -15.0 °F -25.0 °F -18.0 °F 86% 30.38 in 1.0 mi ESE 3.5 mph - 0.00 in Snow Light Snow
9:53 AM -15.0 °F -25.0 °F -18.0 °F 86% 30.59 in 2.0 mi ESE 3.5 mph - 0.00 in Snow Light Snow
10:12 AM -14.1 °F - -17.0 °F 87% 30.38 in 5.0 mi Calm Calm - 0.00 in   Overcast
10:53 AM -14.1 °F - -18.9 °F 79% 30.59 in 9.0 mi Calm Calm - 0.00 in   Overcast
11:53 AM -11.9 °F -23.8 °F -17.0 °F 78% 30.57 in 8.0 mi East 4.6 mph - N/A   Overcast
12:53 PM -11.9 °F -25.7 °F -17.0 °F 78% 30.57 in 10.0 mi East 5.8 mph - N/A   Mostly Cloudy
1:53 PM -9.0 °F - -16.1 °F 71% 30.55 in 10.0 mi Calm Calm - N/A   Partly Cloudy
2:53 PM -9.0 °F - -15.0 °F 75% 30.54 in 10.0 mi Calm Calm - 0.00 in   Partly Cloudy
3:53 PM -9.9 °F -19.2 °F -16.1 °F 74% 30.53 in 10.0 mi East 3.5 mph - 0.00 in   Partly Cloudy
4:53 PM -11.9 °F -23.8 °F -17.0 °F 78% 30.54 in 10.0 mi East 4.6 mph - 0.00 in   Scattered Clouds
5:53 PM -17.0 °F - -23.1 °F 74% 30.55 in 10.0 mi Calm Calm - N/A   Scattered Clouds
6:53 PM -18.0 °F - -23.1 °F 78% 30.55 in 10.0 mi Calm Calm - N/A   Scattered Clouds
7:53 PM -23.1 °F - -29.0 °F 74% 30.56 in 10.0 mi Calm Calm - N/A   Clear
8:53 PM -25.1 °F -36.5 °F -31.0 °F 74% 30.56 in 10.0 mi South 3.5 mph - N/A   Clear
9:53 PM -23.1 °F - -27.9 °F 78% 30.57 in 10.0 mi Calm Calm - N/A   Clear
10:53 PM -25.1 °F - -33.0 °F 66% 30.57 in 10.0 mi Calm Calm - N/A   Clear
11:53 PM -22.0 °F - -29.9 °F 67% 30.56 in 10.0 mi Calm Calm - N/A   Clear